SCP
0 0 0 0 0 0 0 1 2 2 2 2 2 1 1 1 1 0 0 0 0 0 0 0 0 0 0 0 0 0 0 0
0 0 0 0 0 0 1 1 2 2 2 2 1 1 1 1 0 0 0 0 0 0 0 0 0 0 0 0 0 0 0 0
0 0 0 0 0 0 1 1 2 2 2 1 1 1 0 0 0 0 0 0 0 0 0 0 0 0 0 0 0 0 0 0
0 0 0 0 0 0 0 1 1 1 1 1 1 1 0 0 0 0 0 0 0 0 0 0 0 0 0 0 0 0 0 0
0 0 0 0 0 0 0 -0 0 0 1 1 0 0 0 0 0 0 0 0 0 0 0 0 0 0 0 0 0 0 0 0
0 0 0 0 0 0 0 0 0 0 1 0 0 0 0 0 0 0 0 0 0 0 0 0 0 0 0 0 0 0 0 0
0 0 0 0 0 0 0 0 0 0 0 0 0 0 0 0 0 0 0 0 0 0 0 0 0 0 0 0 0 0 0 0
0 0 0 0 0 0 0 0 0 0 0 0 0 0 0 0 0 0 0 0 0 0 0 0 0 0 0 0 0 0 0 0
0 0 0 0 0 0 0 0 0 0 0 0 0 0 0 0 0 0 0 0 0 0 0 0 0 0 0 0 0 0 0 0
0 0 0 0 0 0 0 0 0 0 0 0 0 0 0 0 0 0 0 0 0 0 0 0 0 0 0 0 0 0 0 0
0 0 0 0 0 0 0 0 0 0 0 0 0 0 0 0 0 0 0 0 0 0 0 0 0 0 0 0 0 -0 0 0
0 0 0 0 0 0 0 0 0 0 0 0 0 0 1 0 0 0 0 0 0 0 0 0 0 0 -0 0 -0 -0 0 0
0 0 0 0 0 0 0 0 0 0 0 0 0 1 0 0 0 0 0 0 0 0 0 0 -0 -0 0 0 0 0 0 0
0 0 0 -0 0 0 0 0 0 0 0 0 0 0 0 0 0 0 0 0 0 0 -0 0 0 0 0 0 0 0 0 0
0 0 -0 -0 -0 0 0 0 0 0 0 0 0 0 0 0 0 0 0 0 -0 -0 0 0 0 0 0 0 0 0 0 0
0 0 -0 -0 -0 -0 0 0 0 0 0 0 0 0 0 0 0 0 0 0 0 -0 -0 0 0 0 0 0 -0 0 0 0
-0 -0 -0 -0 -0 -0 0 0 0 0 0 0 0 0 0 0 0 0 0 0 0 -0 0 0 0 0 0 -0 -0 0 0 0
-0 -0 -0 -0 -0 -0 -0 0 0 0 0 0 0 0 0 0 0 0 -0 0 -0 0 0 0 0 0 0 0 0 0 0 0
-0 -0 -0 -0 -0 -0 -0 0 0 0 0 0 0 0 0 0 0 -0 0 -0 -0 0 0 0 0 0 0 0 0 0 -0 -0
-0 -0 -0 -0 -0 -0 -0 0 0 0 0 0 0 0 0 0 0 -0 -0 -0 -0 0 0 0 0 0 0 0 0 0 -0 -0
Wind_Speed_500mb
59 50 56 67 77 69 65 59 56 57 57 51 44 36 31 32 34 35 34 36 36 35 29 27 27 27 29 29 33 34 29 29
69 62 59 72 79 81 69 61 58 60 58 53 43 36 33 34 33 32 31 33 34 32 29 27 25 25 24 24 26 29 32 32
70 63 58 65 83 87 77 64 61 64 61 53 44 38 35 31 31 28 29 30 29 29 30 29 27 27 29 27 26 24 27 30
67 63 58 61 72 85 83 69 64 64 59 51 41 36 33 28 25 25 29 31 30 31 32 33 31 30 28 29 28 26 25 29
62 61 58 60 71 80 84 71 64 62 57 48 39 35 30 25 23 27 31 33 33 32 33 34 34 36 29 28 29 26 27 29
56 60 59 64 72 84 77 73 62 58 53 45 37 33 26 20 22 27 32 35 35 34 32 32 30 32 30 28 28 26 26 27
67 66 57 56 59 75 70 70 59 54 51 43 36 29 24 22 24 27 31 33 32 32 31 29 29 31 30 28 28 27 27 29
65 65 41 37 46 54 60 65 58 54 49 40 34 27 23 23 26 28 29 27 27 28 28 27 29 29 27 25 26 27 27 26
56 40 26 25 38 45 60 65 58 58 48 40 31 24 21 23 23 28 24 21 22 25 24 25 27 26 25 25 26 27 27 25
35 30 25 25 31 48 61 61 61 51 39 30 25 20 20 19 23 23 18 19 21 23 23 20 21 24 25 24 26 27 28 26
24 25 22 28 37 51 64 63 51 41 33 28 21 18 15 16 17 16 15 16 15 16 15 17 18 17 18 19 22 27 30 31
25 21 21 27 43 54 61 54 44 36 30 23 17 13 9 11 12 12 13 10 8 4 10 14 14 12 11 11 16 26 26 29
19 17 20 28 43 61 55 47 38 33 26 22 13 5 7 9 9 11 12 8 5 5 7 8 7 6 9 16 20 24 22 24
16 19 26 39 56 60 51 42 36 30 25 19 11 2 4 8 10 14 11 10 9 7 9 7 6 5 9 14 19 22 21 17
28 37 47 61 67 59 49 41 36 28 24 20 8 1 4 9 12 14 8 9 15 13 11 11 8 6 8 12 17 20 19 16
29 40 57 67 64 55 46 41 32 26 24 19 10 4 7 9 13 7 4 14 19 18 15 13 13 10 9 10 13 18 17 13
38 47 61 64 59 51 43 39 28 26 26 18 11 6 7 10 10 6 12 19 23 20 16 11 8 8 7 8 12 17 14 9
43 55 62 59 51 45 42 32 25 27 24 18 13 5 6 8 9 9 14 21 24 19 17 10 6 6 6 9 9 10 13 11
44 53 59 54 48 46 42 33 29 30 23 21 13 3 3 3 4 6 14 20 22 20 16 10 5 5 8 6 6 9 15 19
46 50 58 53 50 48 38 33 30 29 23 19 13 6 2 2 1 7 13 20 21 16 12 9 9 9 11 12 11 15 18 18
Wind_Direction_500mb
299 288 272 255 235 228 226 227 226 225 225 226 229 241 256 277 280 277 274 274 270 267 266 264 265 259 255 251 255 257 258 241
296 285 276 253 244 234 230 228 228 227 226 229 233 246 261 274 276 270 268 270 266 265 264 264 268 257 257 258 264 265 254 249
293 297 290 261 251 240 232 230 228 227 224 227 231 249 267 269 271 267 268 270 271 266 263 261 260 259 258 260 259 262 251 246
294 294 291 272 259 247 235 230 227 225 225 228 235 252 259 265 265 272 273 269 269 267 263 260 259 256 256 256 256 260 255 244
293 296 293 287 264 249 236 226 224 224 225 224 232 251 253 261 274 276 277 272 268 266 261 258 258 247 254 252 250 257 252 247
288 293 290 287 267 254 234 225 221 223 219 219 235 245 249 261 278 280 278 273 267 261 262 262 255 246 252 250 245 254 250 245
290 292 287 278 266 256 230 221 218 216 209 217 233 238 245 262 282 287 281 276 266 260 260 256 253 247 244 243 244 249 246 237
300 297 281 261 255 246 224 217 212 202 203 217 229 234 246 266 281 289 287 274 262 261 259 255 248 240 241 247 250 250 240 228
298 295 286 259 242 225 211 205 198 195 203 216 221 229 250 269 280 291 287 272 266 265 258 255 242 235 241 247 250 242 230 211
295 289 274 247 231 211 201 195 192 194 207 211 213 227 256 272 285 292 286 274 274 273 256 245 230 231 241 250 248 237 214 200
295 282 254 227 211 202 188 183 184 194 199 201 208 233 264 291 289 300 292 286 286 272 245 222 219 234 246 249 236 214 202 194
273 272 240 213 200 184 176 175 184 188 191 192 203 234 269 294 299 302 299 300 303 272 209 205 225 236 234 228 205 191 198 199
253 234 209 195 183 174 171 177 181 180 184 183 196 257 277 307 314 313 296 286 260 216 197 196 200 211 214 206 194 188 192 195
203 181 168 165 167 168 173 177 174 178 180 183 182 307 292 326 319 311 293 259 226 177 151 145 147 177 195 188 189 192 193 205
163 159 158 159 165 170 174 173 173 176 180 176 167 351 5 340 321 318 282 242 182 156 137 115 117 130 162 187 193 193 200 202
156 160 158 161 167 173 172 171 171 174 173 167 162 84 18 352 337 319 188 161 157 150 133 119 111 119 124 146 173 195 207 216
160 162 162 166 172 173 172 169 170 171 167 163 156 99 38 17 22 62 135 151 152 152 149 130 140 119 114 152 165 190 201 232
163 165 168 171 171 171 169 168 169 166 163 162 161 140 32 21 32 78 133 152 156 158 165 141 125 135 125 144 165 201 211 200
166 169 170 170 171 170 166 166 166 164 162 161 152 191 12 16 25 106 133 153 161 168 167 165 130 123 122 140 169 195 176 167
167 170 169 172 171 171 168 166 164 166 164 170 173 215 288 359 5 160 150 157 164 166 165 178 152 122 123 118 118 124 140 150
Wind_Speed_850mb
59 50 56 67 77 69 65 59 56 57 57 51 44 36 31 32 34 35 34 36 36 35 29 27 27 27 29 29 33 34 29 29
69 62 59 72 79 81 69 61 58 60 58 53 43 36 33 34 33 32 31 33 34 32 29 27 25 25 24 24 26 29 32 32
70 63 58 65 83 87 77 64 61 64 61 53 44 38 35 31 31 28 29 30 29 29 30 29 27 27 29 27 26 24 27 30
67 63 58 61 72 85 83 69 64 64 59 51 41 36 33 28 25 25 29 31 30 31 32 33 31 30 28 29 28 26 25 29
62 61 58 60 71 80 84 71 64 62 57 48 39 35 30 25 23 27 31 33 33 32 33 34 34 36 29 28 29 26 27 29
56 60 59 64 72 84 77 73 62 58 53 45 37 33 26 20 22 27 32 35 35 34 32 32 30 32 30 28 28 26 26 27
67 66 57 56 59 75 70 70 59 54 51 43 36 29 24 22 24 27 31 33 32 32 31 29 29 31 30 28 28 27 27 29
65 65 41 37 46 54 60 65 58 54 49 40 34 27 23 23 26 28 29 27 27 28 28 27 29 29 27 25 26 27 27 26
56 40 26 25 38 45 60 65 58 58 48 40 31 24 21 23 23 28 24 21 22 25 24 25 27 26 25 25 26 27 27 25
35 30 25 25 31 48 61 61 61 51 39 30 25 20 20 19 23 23 18 19 21 23 23 20 21 24 25 24 26 27 28 26
24 25 22 28 37 51 64 63 51 41 33 28 21 18 15 16 17 16 15 16 15 16 15 17 18 17 18 19 22 27 30 31
25 21 21 27 43 54 61 54 44 36 30 23 17 13 9 11 12 12 13 10 8 4 10 14 14 12 11 11 16 26 26 29
19 17 20 28 43 61 55 47 38 33 26 22 13 5 7 9 9 11 12 8 5 5 7 8 7 6 9 16 20 24 22 24
16 19 26 39 56 60 51 42 36 30 25 19 11 2 4 8 10 14 11 10 9 7 9 7 6 5 9 14 19 22 21 17
28 37 47 61 67 59 49 41 36 28 24 20 8 1 4 9 12 14 8 9 15 13 11 11 8 6 8 12 17 20 19 16
29 40 57 67 64 55 46 41 32 26 24 19 10 4 7 9 13 7 4 14 19 18 15 13 13 10 9 10 13 18 17 13
38 47 61 64 59 51 43 39 28 26 26 18 11 6 7 10 10 6 12 19 23 20 16 11 8 8 7 8 12 17 14 9
43 55 62 59 51 45 42 32 25 27 24 18 13 5 6 8 9 9 14 21 24 19 17 10 6 6 6 9 9 10 13 11
44 53 59 54 48 46 42 33 29 30 23 21 13 3 3 3 4 6 14 20 22 20 16 10 5 5 8 6 6 9 15 19
46 50 58 53 50 48 38 33 30 29 23 19 13 6 2 2 1 7 13 20 21 16 12 9 9 9 11 12 11 15 18 18
Wind_Direction_850mb
299 288 272 255 235 228 226 227 226 225 225 226 229 241 256 277 280 277 274 274 270 267 266 264 265 259 255 251 255 257 258 241
296 285 276 253 244 234 230 228 228 227 226 229 233 246 261 274 276 270 268 270 266 265 264 264 268 257 257 258 264 265 254 249
293 297 290 261 251 240 232 230 228 227 224 227 231 249 267 269 271 267 268 270 271 266 263 261 260 259 258 260 259 262 251 246
294 294 291 272 259 247 235 230 227 225 225 228 235 252 259 265 265 272 273 269 269 267 263 260 259 256 256 256 256 260 255 244
293 296 293 287 264 249 236 226 224 224 225 224 232 251 253 261 274 276 277 272 268 266 261 258 258 247 254 252 250 257 252 247
288 293 290 287 267 254 234 225 221 223 219 219 235 245 249 261 278 280 278 273 267 261 262 262 255 246 252 250 245 254 250 245
290 292 287 278 266 256 230 221 218 216 209 217 233 238 245 262 282 287 281 276 266 260 260 256 253 247 244 243 244 249 246 237
300 297 281 261 255 246 224 217 212 202 203 217 229 234 246 266 281 289 287 274 262 261 259 255 248 240 241 247 250 250 240 228
298 295 286 259 242 225 211 205 198 195 203 216 221 229 250 269 280 291 287 272 266 265 258 255 242 235 241 247 250 242 230 211
295 289 274 247 231 211 201 195 192 194 207 211 213 227 256 272 285 292 286 274 274 273 256 245 230 231 241 250 248 237 214 200
295 282 254 227 211 202 188 183 184 194 199 201 208 233 264 291 289 300 292 286 286 272 245 222 219 234 246 249 236 214 202 194
273 272 240 213 200 184 176 175 184 188 191 192 203 234 269 294 299 302 299 300 303 272 209 205 225 236 234 228 205 191 198 199
253 234 209 195 183 174 171 177 181 180 184 183 196 257 277 307 314 313 296 286 260 216 197 196 200 211 214 206 194 188 192 195
203 181 168 165 167 168 173 177 174 178 180 183 182 307 292 326 319 311 293 259 226 177 151 145 147 177 195 188 189 192 193 205
163 159 158 159 165 170 174 173 173 176 180 176 167 351 5 340 321 318 282 242 182 156 137 115 117 130 162 187 193 193 200 202
156 160 158 161 167 173 172 171 171 174 173 167 162 84 18 352 337 319 188 161 157 150 133 119 111 119 124 146 173 195 207 216
160 162 162 166 172 173 172 169 170 171 167 163 156 99 38 17 22 62 135 151 152 152 149 130 140 119 114 152 165 190 201 232
163 165 168 171 171 171 169 168 169 166 163 162 161 140 32 21 32 78 133 152 156 158 165 141 125 135 125 144 165 201 211 200
166 169 170 170 171 170 166 166 166 164 162 161 152 191 12 16 25 106 133 153 161 168 167 165 130 123 122 140 169 195 176 167
167 170 169 172 171 171 168 166 164 166 164 170 173 215 288 359 5 160 150 157 164 166 165 178 152 122 123 118 118 124 140 150